Location: Unspecified
(35.6961°N, 0.0000°E)
Time: 20:48:27
(UTC+00:00)

S-56A Canister/Altair - Pass Details

Date: 27 May 2019
Orbit: 633 x 2499 km, 38.9° (Epoch: 18 June)

Event Time Altitude Azimuth Distance (km) Brightness Sun altitude
Rises 04:12:59 0° 286° (WNW) 3,874 10.7 -6.9°
Reaches altitude 10° 04:15:17 10° 287° (WNW) 3,113 10.3 -6.5°
Maximum altitude 04:23:15 89° 200° (SSW) 1,587 9.1 -5.2°
Drops below altitude 10° 04:35:33 10° 110° (ESE) 4,632 12.2 -3.0°
Sets 04:39:44 0° 111° (ESE) 5,844 12.7 -2.3°
